Location: Limoges
(45.8354°N, 1.2645°E)
Time: 12:55:15
(UTC+01:00)

Explorer 11/Cluster Stage 4 - All Passes

Search period start: 22 February 2024 00:00
Search period end: 03 March 2024 00:00
Orbit: 465 x 1224 km, 28.8° (Epoch: 21 February)

Date Brightness Start Highest point End Pass type
(mag) Time Alt. Az. Time Alt. Az. Time Alt. Az.
22 Feb - 03:00:54 10° S 03:03:34 12° SSE 03:06:06 10° SE night (unlit)
22 Feb - 04:47:08 10° SW 04:50:56 16° S 04:54:24 10° SE visible
22 Feb - 06:36:12 10° SW 06:38:03 11° SSW 06:39:49 10° S visible
23 Feb - 02:43:27 10° SSW 02:46:54 14° SSE 02:50:09 10° SE night (unlit)
23 Feb - 04:30:05 10° SW 04:34:19 17° S 04:38:09 10° SE visible
23 Feb - 06:19:14 10° SW 06:21:29 12° SSW 06:23:36 10° S visible
24 Feb - 02:26:10 10° SSW 02:30:12 15° SSE 02:34:00 10° SE night (unlit)
24 Feb - 04:13:03 10° SW 04:17:40 18° S 04:21:51 10° SE visible
24 Feb - 06:02:17 10° SW 06:04:52 13° SSW 06:07:17 10° S visible
25 Feb - 02:08:58 10° SSW 02:13:28 16° SSE 02:17:43 10° SE night (unlit)
25 Feb - 03:56:03 10° SW 04:00:59 19° S 04:05:27 10° SE visible
25 Feb - 05:45:22 10° SW 05:48:12 13° SSW 05:50:52 10° S visible
26 Feb - 01:51:50 10° SSW 01:56:42 17° SSE 02:01:20 10° SE night (unlit)
26 Feb - 03:39:04 10° SW 03:44:15 20° S 03:49:00 10° SE visible
26 Feb - 05:28:28 10° SW 05:31:32 13° SSW 05:34:23 10° S visible
27 Feb - 01:34:47 10° SSW 01:39:54 18° S 01:44:51 10° SE night (unlit)
27 Feb - 03:22:07 10° SW 03:27:30 20° S 03:32:29 10° SE visible
27 Feb - 05:11:35 10° SW 05:14:48 13° SSW 05:17:48 10° S visible
27 Feb - 23:34:08 10° SSE 23:35:40 11° SSE 23:37:12 10° SE night (unlit)
28 Feb - 01:17:47 10° SSW 01:23:05 19° S 01:28:16 10° SE night (unlit)
28 Feb - 03:05:11 10° SW 03:10:42 21° S 03:15:53 10° SE night (unlit)
28 Feb - 04:54:45 10° SW 04:58:02 13° SSW 05:01:09 10° S visible
28 Feb - 23:16:34 10° S 23:18:50 11° SSE 23:21:06 10° SE night (unlit)
29 Feb - 01:00:50 10° SSW 01:06:15 20° S 01:11:37 10° SE night (unlit)
29 Feb - 02:48:17 10° SW 02:53:53 21° S 02:59:13 10° SE night (unlit)
29 Feb - 04:37:57 10° SW 04:41:15 13° SSW 04:44:24 10° S visible
29 Feb - 22:59:20 10° S 23:01:59 12° SSE 23:04:42 10° SE night (unlit)
01 Mar - 00:43:56 10° SW 00:49:24 20° S 00:54:54 10° SE night (unlit)
01 Mar - 02:31:25 10° SW 02:37:02 21° S 02:42:28 10° SE night (unlit)
01 Mar - 04:21:12 10° SW 04:24:26 13° SSW 04:27:33 10° S visible
01 Mar - 22:42:14 10° S 22:45:08 12° SSE 22:48:07 10° SE night (unlit)
02 Mar - 00:27:04 10° SW 00:32:32 21° S 00:38:07 10° SE night (unlit)
02 Mar - 02:14:35 10° SW 02:20:11 21° S 02:25:40 10° SE night (unlit)
02 Mar - 04:04:31 10° SW 04:07:36 13° SSW 04:10:34 10° S visible
02 Mar - 22:25:17 10° S 22:28:17 13° SSE 22:31:25 10° SE night (unlit)
